map of FNI home
Great Circle Mapper logo
FNI - Airport
Location
City:  Nīmes, France
Name:NAS Nīmes-Garons
ICAO / IATA:LFTW / FNI

Details
Type:Airport (Aerodrome, Airfield)
Use:Public/Civil
Latitude:43°45'27"N (43.757500)
Longitude:4°24'59"E (4.416389)
Elevation:309 ft (94 m)
Variation:1.05°E (WMM2015 magnetic declination)
0.12° annual change
Runways:1
Longest:8015 × 148 ft (2443 × 45 m), paved

Time
Time Zone:UTC+1 (DST+2)
Local Time:

Weather
METAR:LFTW 260730Z AUTO 15012KT 9999 OVC011 15/14 Q1010
TAF:LFTW 260500Z 2606/2706 12012KT 8000 BKN010 BKN020
TEMPO 2606/2706 12015G30KT 3000 SHRA BR BKN008 BKN015TCU PROB30
TEMPO 2606/2609 VRB25G35KT 1500 TSRA BR BKN005 BKN015CB PROB40
TEMPO 2703/2706 VRB25G35KT 1500 TSRA BR BKN005 BKN008CB

Related Locations
Nearby:
Farthest:CHT: 12397 mi / 19951 km
Waitangi [Tuuta], Chatham Islands, NZ

Find:

   beyond  
but within

Other Information
Maps:
NOTAMs:
Links:
Sources:

  
flag of France   

Sectional Chart

Flight Planning
at skyvector.com

Satellite Image

Google Maps Satellite View

 

Copyright © 2004-2015 Karl L. Swartz. All rights reserved.
The Great Circle Mapper name and logo are trademarks of the Great Circle Mapper.
All other trademarks mentioned herein belong to their respective owners.
Please see credits for attibutions and further copyright information.

  Follow gcmap on Facebook Follow gcmap on Twitter Follow gcmap on Google+

hCard Microformat

Geo Microformat